[[{"header":{"parameterUnit":"m.s-1","parameterCategory":1,"la1":30.2992,"la2":30.254,"lo1":-89.0895,"lo2":-89.0443,"dy":0.0025,"dx":0.0025,"nx":19,"ny":19,"refTime":"2026-03-25T03:00:00:Z","depth":0,"parameterNumber":2,"parameterNumberName":"U-component_of_WINDS"},"data":[0,0,0,-2.1265,-2.1268,-2.1405,-2.1405,-2.1585,-2.1586,0,0,0,0,0,0,0,0,0,0,0,-2.1226,-2.1227,-2.1265,-2.1269,-2.1405,-2.1405,-2.1584,-2.1586,0,0,0,0,0,0,0,0,0,0,0,-2.1225,-2.1227,-2.1228,-2.1269,-2.1405,-2.1405,-2.1584,-2.148,0,0,0,0,0,0,0,0,0,0,-2.1347,-2.1311,-2.1226,-2.1228,-2.127,-2.1404,-2.1405,-2.1475,-2.1486,-2.1524,0,-2.1556,0,-2.1574,-2.1599,-2.1599,0,0,0,-2.1269,-2.1301,-2.1337,-2.1228,-2.1271,-2.1404,-2.1343,-2.1481,-2.1494,-2.154,-2.1559,-2.1566,-2.1577,-2.16,-2.1601,-2.1815,-2.1816,0,0,-2.1261,-2.1251,-2.1328,-2.1345,-2.1322,-2.1339,-2.1347,-2.1489,-2.151,-2.156,-2.157,-2.158,-2.1601,-2.1602,-2.1814,-2.1815,0,0,0,-2.1239,-2.1246,-2.1278,-2.1338,-2.1362,-2.1343,-2.1353,-2.1504,-2.1515,-2.1572,-2.1582,-2.1602,-2.1604,-2.1813,-2.1814,-2.1852,0,0,0,-2.1235,-2.1233,-2.1275,-2.127,-2.1359,-2.1434,-2.1364,-2.1505,-2.1522,-2.1581,-2.1602,-2.1606,-2.1811,-2.1813,-2.1849,-2.1872,0,0,0,-2.1217,-2.1231,-2.1251,-2.127,-2.1328,-2.1432,-2.1451,-2.1509,-2.1528,-2.1599,-2.1606,-2.1811,-2.1813,-2.1846,-2.1867,-2.1925,0,0,0,-2.1195,-2.1284,-2.1251,-2.1356,-2.1326,-2.1454,-2.1451,-2.1547,-2.1613,-2.1603,-2.1812,-2.1814,-2.1845,-2.1864,-2.1922,-2.1971,-2.1991,0,0,-2.1302,-2.1297,-2.1359,-2.1334,-2.1464,-2.1434,-2.1572,-2.1643,-2.166,-2.1763,-2.1768,-2.185,-2.1867,-2.1925,-2.2107,-2.2122,0,0,0,-2.139,-2.1435,-2.1471,-2.1532,-2.1587,-2.1637,-2.1687,-2.1713,-2.18,-2.171,-2.1887,-2.1898,-2.1932,-2.1956,-2.1969,-2.1999,-2.1825,-2.1824,-2.1824,-2.1528,-2.1543,-2.1647,-2.1679,-2.1739,-2.179,-2.184,-2.1885,-2.1884,-2.1926,-2.1956,-2.2065,-2.2092,-2.2102,-2.2133,-2.1984,-2.1985,-2.1985,-2.1985,-2.1686,-2.1752,-2.1748,-2.1847,-2.1864,-2.1949,-2.2002,-2.1999,-2.2081,-2.2043,-2.2074,-2.203,-2.2119,-2.2147,-2.1988,-2.1987,-2.1987,-2.1987,-2.1986,-2.1778,-2.1811,-2.1841,-2.1931,-2.1999,-2.2029,-2.2108,-2.2122,-2.2135,-2.2166,-2.2199,-2.2198,-2.2199,-2.2181,-2.2181,-2.2181,-2.2182,-2.2182,-2.2182,-2.186,-2.1892,-2.1956,-2.2021,-2.2062,-2.2118,-2.2171,-2.2213,-2.2262,-2.2266,-2.2266,-2.2262,-2.2125,-2.2089,-2.2188,-2.2187,-2.2186,-2.2186,-2.2185,-2.2013,-2.1981,-2.2079,-2.212,-2.2198,-2.2265,-2.2281,-2.2365,-2.2402,-2.2441,-2.243,-2.2327,-2.2323,-2.2312,-2.2283,-2.2426,-2.2426,-2.2426,-2.2426,-2.209,-2.2089,-2.2192,-2.2256,-2.2322,-2.2346,-2.2458,-2.2501,-2.2541,-2.2565,-2.2547,-2.251,-2.2498,-2.2501,-2.2487,-2.246,-2.2644,-2.2645,-2.2645,-2.2185,-2.2191,-2.2282,-2.2318,-2.2381,-2.2436,-2.2542,-2.2618,-2.2657,-2.2654,-2.2584,-2.2575,-2.2515,-2.2495,-2.2489,-2.2466,-2.2417,0,0]},{"header":{"parameterUnit":"m.s-1","parameterCategory":1,"la1":30.2992,"la2":30.254,"lo1":-89.0895,"lo2":-89.0443,"dy":0.0025,"dx":0.0025,"nx":19,"ny":19,"refTime":"2026-03-25T03:00:00:Z","depth":0,"parameterNumber":3,"parameterNumberName":"V-component_of_WINDS"},"data":[0,0,0,0.4697,0.4698,0.4732,0.4733,0.477,0.477,0,0,0,0,0,0,0,0,0,0,0,0.4682,0.4682,0.4697,0.4698,0.4732,0.4733,0.477,0.477,0,0,0,0,0,0,0,0,0,0,0,0.4682,0.4682,0.4683,0.4698,0.4732,0.4733,0.477,0.4746,0,0,0,0,0,0,0,0,0,0,0.4714,0.4696,0.4682,0.4683,0.4698,0.4732,0.4733,0.4745,0.4747,0.4751,0,0.4753,0,0.4762,0.4772,0.4772,0,0,0,0.4701,0.4694,0.4707,0.4683,0.4698,0.4732,0.4718,0.4746,0.4749,0.4754,0.4753,0.4755,0.4762,0.4772,0.4772,0.4781,0.478,0,0,0.4699,0.4686,0.4705,0.4708,0.4703,0.4717,0.4719,0.4748,0.4746,0.4753,0.4756,0.4763,0.4772,0.4773,0.4781,0.478,0,0,0,0.4691,0.4685,0.4698,0.4707,0.4714,0.4717,0.472,0.4745,0.475,0.4756,0.4763,0.4773,0.4773,0.4781,0.4781,0.4762,0,0,0,0.469,0.468,0.4697,0.4689,0.4713,0.473,0.4716,0.4748,0.4752,0.4763,0.4773,0.4773,0.4781,0.4781,0.4762,0.4754,0,0,0,0.4682,0.4679,0.4683,0.4688,0.4703,0.473,0.4737,0.475,0.4756,0.4772,0.4773,0.4781,0.4781,0.4763,0.4756,0.4752,0,0,0,0.4668,0.4666,0.4682,0.4682,0.4702,0.4718,0.4737,0.4749,0.476,0.4773,0.4781,0.4781,0.4763,0.4757,0.4753,0.4747,0.4743,0,0,0.4658,0.4664,0.4665,0.4681,0.469,0.4713,0.472,0.4743,0.4756,0.4772,0.4772,0.4762,0.4756,0.4753,0.4728,0.4725,0,0,0,0.4657,0.4657,0.4663,0.4673,0.469,0.4704,0.4727,0.4736,0.4749,0.4762,0.4761,0.4758,0.4756,0.4754,0.4751,0.475,0.4779,0.4779,0.4779,0.4622,0.464,0.4642,0.4664,0.4673,0.4697,0.4707,0.4722,0.4737,0.4737,0.4741,0.4724,0.472,0.4719,0.4718,0.474,0.474,0.474,0.474,0.4607,0.461,0.463,0.464,0.4658,0.4667,0.469,0.47,0.471,0.4722,0.4722,0.4732,0.4715,0.4715,0.4738,0.4739,0.4739,0.4739,0.4739,0.4586,0.459,0.4601,0.4617,0.4628,0.465,0.4659,0.4676,0.4692,0.4692,0.4698,0.4698,0.47,0.4693,0.4693,0.4693,0.4693,0.4693,0.4693,0.4559,0.4572,0.4577,0.4595,0.4604,0.4617,0.4642,0.4651,0.4665,0.4676,0.4677,0.4691,0.471,0.4714,0.4692,0.4692,0.4693,0.4693,0.4693,0.4536,0.4544,0.4552,0.456,0.4583,0.4592,0.4614,0.4631,0.4641,0.4645,0.466,0.4672,0.4679,0.4681,0.4685,0.4657,0.4657,0.4657,0.4657,0.4517,0.4523,0.4535,0.4547,0.4562,0.4582,0.4591,0.461,0.4631,0.4638,0.4645,0.4651,0.4652,0.4659,0.4662,0.4665,0.4633,0.4633,0.4633,0.4504,0.4511,0.4515,0.4536,0.4555,0.4571,0.4579,0.4593,0.4618,0.4632,0.4644,0.4645,0.4655,0.4657,0.467,0.4674,0.468,0,0]}]]